When you browse on this site, cookies collect data to enhance your experience and personalize the content and advertising you see.
Visit our Privacy Policy to learn more. By continuing to use the site, you agree to this use of cookies and data.
  • In Czech Republic
  • List of Countries
  • For 7 days
  • Water Temperature
  • Weather Map
  • Weather Widgets
  • user-avatar
    Login

    Hourly Weather Angus

    Today, 18 January, Saturday

    Time Temperature Precipitation Wind Pressure Humidity
    00:00 -14°C° 0 mm 2 mps 758 mmHg 86%
    01:00 -14°C° 0 mm 2 mps 758 mmHg 84%
    02:00 -15°C° 0.2 mm 3 mps 757 mmHg 87%
    03:00 -15°C° 0.2 mm 4 mps 755 mmHg 89%
    04:00 -15°C° 0.2 mm 5 mps 754 mmHg 92%
    05:00 -15°C° 0.1 mm 6 mps 753 mmHg 91%
    06:00 -14°C° 0.1 mm 6 mps 751 mmHg 91%
    07:00 -13°C° 0.1 mm 7 mps 750 mmHg 91%
    08:00 -12°C° 0.1 mm 7 mps 748 mmHg 90%
    09:00 -12°C° 0.1 mm 7 mps 747 mmHg 88%
    10:00 -11°C° 0.1 mm 7 mps 745 mmHg 87%
    11:00 -11°C° 0.8 mm 8 mps 743 mmHg 89%
    12:00 -10°C° 0.8 mm 8 mps 741 mmHg 92%
    13:00 -10°C° 0.8 mm 8 mps 739 mmHg 94%
    14:00 -8°C° 1.4 mm 8 mps 737 mmHg 94%
    15:00 -8°C° 1.4 mm 8 mps 735 mmHg 95%
    16:00 -7°C° 1.4 mm 8 mps 733 mmHg 95%
    17:00 -6°C° 1.6 mm 7 mps 732 mmHg 96%
    18:00 -4°C° 1.6 mm 6 mps 731 mmHg 96%
    19:00 -3°C° 1.6 mm 6 mps 729 mmHg 97%
    20:00 -3°C° 0.4 mm 6 mps 729 mmHg 94%
    21:00 -3°C° 0.4 mm 7 mps 729 mmHg 91%
    22:00 -2°C° 0.4 mm 8 mps 728 mmHg 87%
    23:00 -4°C° 0.1 mm 8 mps 728 mmHg 87%

    Tomorrow, 19 January, Sunday

    Time Temperature Precipitation Wind Pressure Humidity
    00:00 -5°C° 0.1 mm 8 mps 729 mmHg 86%
    01:00 -4°C° 0.1 mm 7 mps 729 mmHg 85%
    02:00 -6°C° 0.3 mm 7 mps 730 mmHg 86%
    03:00 -7°C° 0.3 mm 8 mps 730 mmHg 88%
    04:00 -7°C° 0.3 mm 8 mps 730 mmHg 89%
    05:00 -10°C° 0.1 mm 8 mps 732 mmHg 88%
    06:00 -11°C° 0.1 mm 7 mps 733 mmHg 88%
    07:00 -12°C° 0.1 mm 7 mps 734 mmHg 88%
    08:00 -13°C° 0.1 mm 7 mps 735 mmHg 88%
    09:00 -12°C° 0.1 mm 6 mps 735 mmHg 89%
    10:00 -12°C° 0.1 mm 6 mps 736 mmHg 89%
    11:00 -12°C° 0.1 mm 6 mps 737 mmHg 90%
    12:00 -12°C° 0.1 mm 6 mps 738 mmHg 90%
    13:00 -12°C° 0.1 mm 6 mps 739 mmHg 91%
    14:00 -12°C° 0.2 mm 6 mps 739 mmHg 91%
    15:00 -12°C° 0.2 mm 6 mps 740 mmHg 92%
    16:00 -14°C° 0.2 mm 6 mps 740 mmHg 92%
    17:00 -14°C° 0.1 mm 6 mps 742 mmHg 91%
    18:00 -14°C° 0.1 mm 6 mps 743 mmHg 90%
    19:00 -14°C° 0.1 mm 5 mps 744 mmHg 88%
    20:00 -14°C° 0 mm 5 mps 744 mmHg 89%
    21:00 -15°C° 0 mm 5 mps 745 mmHg 90%
    22:00 -16°C° 0 mm 4 mps 745 mmHg 91%
    23:00 -16°C° 0 mm 4 mps 746 mmHg 91%

    Day after tomorrow, 20 January, Monday

    Time Temperature Precipitation Wind Pressure Humidity
    00:00 -17°C° 0 mm 4 mps 747 mmHg 91%
    01:00 -18°C° 0 mm 4 mps 747 mmHg 90%
    02:00 -19°C° 0 mm 4 mps 748 mmHg 90%
    03:00 -19°C° 0 mm 3 mps 748 mmHg 90%
    04:00 -19°C° 0 mm 3 mps 748 mmHg 90%
    05:00 -21°C° 0 mm 3 mps 749 mmHg 90%
    06:00 -21°C° 0 mm 3 mps 749 mmHg 91%
    07:00 -20°C° 0 mm 2 mps 750 mmHg 91%
    08:00 -18°C° 0 mm 2 mps 750 mmHg 90%
    09:00 -17°C° 0 mm 2 mps 751 mmHg 90%
    10:00 -16°C° 0 mm 2 mps 751 mmHg 89%
    11:00 -15°C° 0 mm 3 mps 751 mmHg 87%
    12:00 -14°C° 0 mm 4 mps 751 mmHg 84%
    13:00 -11°C° 0 mm 5 mps 751 mmHg 81%
    14:00 -10°C° 0 mm 4 mps 751 mmHg 82%
    15:00 -10°C° 0 mm 4 mps 751 mmHg 82%
    16:00 -10°C° 0 mm 4 mps 750 mmHg 83%
    17:00 -10°C° 0.1 mm 4 mps 750 mmHg 85%
    18:00 -10°C° 0.1 mm 4 mps 751 mmHg 86%
    19:00 -11°C° 0.1 mm 5 mps 751 mmHg 88%
    20:00 -10°C° 0 mm 4 mps 751 mmHg 88%
    21:00 -10°C° 0 mm 4 mps 751 mmHg 88%
    22:00 -10°C° 0 mm 4 mps 751 mmHg 88%
    23:00 -11°C° 0 mm 4 mps 751 mmHg 88%

    21 January, Tuesday

    Time Temperature Precipitation Wind Pressure Humidity
    00:00 -10°C° 0 mm 3 mps 751 mmHg 88%
    01:00 -12°C° 0 mm 3 mps 751 mmHg 88%
    02:00 -13°C° 0 mm 3 mps 751 mmHg 88%
    03:00 -13°C° 0 mm 2 mps 751 mmHg 87%
    04:00 -15°C° 0 mm 2 mps 751 mmHg 87%
    05:00 -13°C° 0 mm 1 mps 751 mmHg 86%
    06:00 -14°C° 0 mm 1 mps 751 mmHg 86%
    07:00 -15°C° 0 mm 1 mps 752 mmHg 86%
    08:00 -13°C° 0 mm 1 mps 752 mmHg 86%
    09:00 -13°C° 0 mm 2 mps 752 mmHg 86%
    10:00 -10°C° 0 mm 2 mps 752 mmHg 86%
    11:00 -9°C° 0 mm 3 mps 752 mmHg 86%
    12:00 -8°C° 0 mm 4 mps 751 mmHg 86%
    13:00 -6°C° 0 mm 5 mps 751 mmHg 86%
    14:00 -7°C° 0 mm 4 mps 751 mmHg 86%
    15:00 -7°C° 0 mm 4 mps 750 mmHg 86%
    16:00 -7°C° 0 mm 4 mps 750 mmHg 86%
    17:00 -8°C° 0 mm 4 mps 750 mmHg 86%
    18:00 -9°C° 0 mm 4 mps 750 mmHg 86%
    19:00 -10°C° 0 mm 4 mps 750 mmHg 86%
    20:00 -10°C° 0 mm 4 mps 750 mmHg 87%
    21:00 -10°C° 0 mm 4 mps 750 mmHg 88%
    22:00 -9°C° 0 mm 4 mps 750 mmHg 89%
    23:00 -9°C° 0 mm 4 mps 749 mmHg 89%

    22 January, Wednesday

    Time Temperature Precipitation Wind Pressure Humidity
    00:00 -9°C° 0 mm 4 mps 749 mmHg 88%
    01:00 -9°C° 0 mm 4 mps 749 mmHg 88%
    02:00 -9°C° 0 mm 4 mps 749 mmHg 87%
    03:00 -9°C° 0 mm 4 mps 749 mmHg 87%
    04:00 -9°C° 0 mm 4 mps 749 mmHg 87%
    05:00 -9°C° 0 mm 4 mps 749 mmHg 87%
    06:00 -9°C° 0 mm 4 mps 749 mmHg 86%
    07:00 -9°C° 0 mm 4 mps 749 mmHg 86%
    08:00 -9°C° 0 mm 4 mps 749 mmHg 86%
    09:00 -8°C° 0 mm 4 mps 750 mmHg 86%
    10:00 -7°C° 0 mm 4 mps 750 mmHg 86%
    11:00 -5°C° 0 mm 4 mps 750 mmHg 85%
    12:00 -4°C° 0 mm 4 mps 750 mmHg 84%
    13:00 -4°C° 0 mm 5 mps 749 mmHg 83%
    14:00 -4°C° 0 mm 4 mps 749 mmHg 83%
    15:00 -4°C° 0 mm 4 mps 750 mmHg 83%
    16:00 -4°C° 0 mm 4 mps 750 mmHg 83%
    17:00 -5°C° 0 mm 4 mps 750 mmHg 83%
    18:00 -7°C° 0 mm 4 mps 750 mmHg 83%
    19:00 -8°C° 0 mm 4 mps 749 mmHg 83%
    20:00 -7°C° 0 mm 4 mps 749 mmHg 82%
    21:00 -7°C° 0 mm 5 mps 749 mmHg 80%
    22:00 -7°C° 0 mm 5 mps 750 mmHg 79%
    23:00 -7°C° 0 mm 5 mps 749 mmHg 77%

    23 January, Thursday

    Time Temperature Precipitation Wind Pressure Humidity
    00:00 -6°C° 0 mm 5 mps 749 mmHg 76%
    01:00 -6°C° 0 mm 5 mps 749 mmHg 74%
    02:00 -6°C° 0 mm 5 mps 749 mmHg 75%
    03:00 -5°C° 0 mm 4 mps 750 mmHg 75%
    04:00 -5°C° 0 mm 4 mps 750 mmHg 76%
    05:00 -7°C° 0 mm 4 mps 750 mmHg 76%
    06:00 -7°C° 0 mm 4 mps 750 mmHg 76%
    07:00 -7°C° 0 mm 4 mps 750 mmHg 77%
    08:00 -5°C° 0 mm 4 mps 750 mmHg 77%
    09:00 -4°C° 0 mm 3 mps 750 mmHg 78%
    10:00 -4°C° 0 mm 3 mps 751 mmHg 78%
    11:00 -2°C° 0 mm 3 mps 751 mmHg 81%
    12:00 -1°C° 0 mm 3 mps 750 mmHg 84%
    13:00 0°C° 0 mm 3 mps 750 mmHg 87%
    14:00 0°C° 0 mm 3 mps 750 mmHg 86%
    15:00 +1°C° 0 mm 2 mps 750 mmHg 85%
    16:00 -1°C° 0 mm 2 mps 750 mmHg 83%
    17:00 -1°C° 0 mm 2 mps 750 mmHg 83%
    18:00 -2°C° 0 mm 2 mps 750 mmHg 83%
    19:00 -3°C° 0 mm 2 mps 750 mmHg 83%
    20:00 -3°C° 0 mm 2 mps 750 mmHg 84%
    21:00 -3°C° 0 mm 2 mps 750 mmHg 84%
    22:00 -3°C° 0 mm 2 mps 750 mmHg 85%
    23:00 -3°C° 0 mm 2 mps 750 mmHg 84%
    Show more